TimeCDT,TemperatureF,Dew PointF,Humidity,Sea Level PressureIn,VisibilityMPH,Wind Direction,Wind SpeedMPH,Gust SpeedMPH,PrecipitationIn,Events,Conditions,WindDirDegrees,DateUTC
12:15 AM,41.2,40.3,97,30.24,10.0,NNW,3.5,-,N/A,,Clear,330,2012-04-17 05:15:00
12:35 AM,41.2,40.3,97,30.24,10.0,Calm,Calm,-,N/A,,Clear,0,2012-04-17 05:35:00
12:55 AM,40.1,39.7,99,30.25,10.0,Calm,Calm,-,N/A,,Clear,0,2012-04-17 05:55:00
1:15 AM,39.4,39.4,100,30.25,10.0,Calm,Calm,-,N/A,,Clear,0,2012-04-17 06:15:00
1:35 AM,38.5,38.5,100,30.26,10.0,Calm,Calm,-,N/A,,Clear,0,2012-04-17 06:35:00
1:55 AM,39.4,39.4,100,30.25,10.0,Calm,Calm,-,N/A,,Scattered Clouds,0,2012-04-17 06:55:00
2:15 AM,38.3,38.3,100,30.25,10.0,NNW,4.6,-,N/A,,Mostly Cloudy,340,2012-04-17 07:15:00
2:35 AM,40.1,40.1,100,30.26,10.0,North,3.5,-,N/A,,Overcast,350,2012-04-17 07:35:00
2:55 AM,40.3,40.3,100,30.26,10.0,Calm,Calm,-,N/A,,Overcast,0,2012-04-17 07:55:00
3:15 AM,39.9,39.9,100,30.26,10.0,NNW,3.5,-,N/A,,Overcast,340,2012-04-17 08:15:00
3:35 AM,40.1,40.1,100,30.27,10.0,Calm,Calm,-,N/A,,Overcast,0,2012-04-17 08:35:00
3:55 AM,40.5,40.5,100,30.27,10.0,Calm,Calm,-,N/A,,Overcast,0,2012-04-17 08:55:00
4:15 AM,40.1,40.1,100,30.27,10.0,Calm,Calm,-,N/A,,Overcast,0,2012-04-17 09:15:00
4:35 AM,40.1,40.1,100,30.28,10.0,Calm,Calm,-,N/A,,Overcast,0,2012-04-17 09:35:00
4:55 AM,40.1,40.1,100,30.28,10.0,Calm,Calm,-,N/A,,Overcast,0,2012-04-17 09:55:00
5:15 AM,40.5,40.5,100,30.28,10.0,Calm,Calm,-,N/A,,Overcast,0,2012-04-17 10:15:00
5:35 AM,40.1,40.1,100,30.29,10.0,Calm,Calm,-,N/A,,Overcast,0,2012-04-17 10:35:00
6:15 AM,40.3,40.3,100,30.29,10.0,SE,3.5,-,N/A,,Overcast,140,2012-04-17 11:15:00
6:35 AM,40.5,40.5,100,30.29,10.0,ESE,3.5,-,N/A,,Overcast,110,2012-04-17 11:35:00
6:55 AM,41.0,41.0,100,30.30,10.0,SSE,3.5,-,N/A,,Overcast,150,2012-04-17 11:55:00
7:15 AM,41.4,41.4,100,30.30,10.0,ESE,4.6,-,N/A,,Overcast,120,2012-04-17 12:15:00
7:35 AM,41.5,41.4,99,30.31,10.0,Calm,Calm,-,N/A,,Overcast,0,2012-04-17 12:35:00
7:55 AM,43.2,42.3,97,30.31,10.0,ESE,4.6,-,N/A,,Overcast,120,2012-04-17 12:55:00
8:15 AM,44.1,43.0,96,30.31,10.0,SE,8.1,-,N/A,,Overcast,140,2012-04-17 13:15:00
8:35 AM,45.5,43.5,93,30.31,10.0,SSE,9.2,-,N/A,,Mostly Cloudy,150,2012-04-17 13:35:00
8:55 AM,45.9,43.5,92,30.32,10.0,SSE,9.2,-,N/A,,Overcast,160,2012-04-17 13:55:00
9:15 AM,46.8,43.9,90,30.31,10.0,SSE,10.4,-,N/A,,Overcast,160,2012-04-17 14:15:00
9:35 AM,48.0,44.4,87,30.31,10.0,SSE,9.2,-,N/A,,Overcast,150,2012-04-17 14:35:00
9:55 AM,50.2,44.8,82,30.31,10.0,South,12.7,-,N/A,,Scattered Clouds,180,2012-04-17 14:55:00
10:15 AM,51.8,43.2,72,30.31,10.0,South,13.8,-,N/A,,Clear,170,2012-04-17 15:15:00
10:35 AM,53.2,42.3,66,30.31,10.0,SSE,10.4,-,N/A,,Scattered Clouds,160,2012-04-17 15:35:00
10:55 AM,54.5,42.3,63,30.30,10.0,SSE,12.7,-,N/A,,Scattered Clouds,150,2012-04-17 15:55:00
11:15 AM,55.6,42.4,61,30.30,10.0,South,11.5,-,N/A,,Scattered Clouds,170,2012-04-17 16:15:00
11:35 AM,57.4,42.6,58,30.29,10.0,SSE,13.8,19.6,N/A,,Clear,160,2012-04-17 16:35:00
11:55 AM,57.4,43.3,59,30.28,10.0,SSE,13.8,-,N/A,,Scattered Clouds,160,2012-04-17 16:55:00
12:15 PM,56.5,44.1,63,30.27,10.0,South,11.5,-,N/A,,Overcast,180,2012-04-17 17:15:00
12:35 PM,55.9,44.2,65,30.27,10.0,South,12.7,-,N/A,,Overcast,170,2012-04-17 17:35:00
12:55 PM,58.1,45.5,63,30.25,10.0,SSE,13.8,19.6,N/A,,Overcast,160,2012-04-17 17:55:00
1:15 PM,58.6,45.9,63,30.24,10.0,SSE,16.1,-,N/A,,Overcast,150,2012-04-17 18:15:00
1:35 PM,59.9,47.1,63,30.24,10.0,SSE,13.8,19.6,N/A,,Overcast,160,2012-04-17 18:35:00
1:55 PM,61.2,47.8,62,30.23,10.0,South,13.8,-,N/A,,Mostly Cloudy,170,2012-04-17 18:55:00
2:15 PM,62.6,48.7,60,30.21,10.0,South,16.1,-,N/A,,Scattered Clouds,180,2012-04-17 19:15:00
2:35 PM,63.3,49.1,60,30.20,10.0,South,13.8,-,N/A,,Clear,170,2012-04-17 19:35:00
2:55 PM,64.4,48.7,57,30.18,10.0,South,16.1,21.9,N/A,,Clear,180,2012-04-17 19:55:00
3:15 PM,65.5,49.3,56,30.17,10.0,South,13.8,21.9,N/A,,Clear,180,2012-04-17 20:15:00
3:35 PM,65.1,50.0,58,30.16,10.0,South,16.1,24.2,N/A,,Clear,180,2012-04-17 20:35:00
3:55 PM,65.8,50.9,58,30.15,10.0,South,17.3,21.9,N/A,,Scattered Clouds,190,2012-04-17 20:55:00
4:15 PM,65.5,50.5,58,30.15,10.0,South,16.1,24.2,N/A,,Scattered Clouds,180,2012-04-17 21:15:00
4:35 PM,67.3,50.9,56,30.13,10.0,SSE,19.6,26.5,N/A,,Mostly Cloudy,160,2012-04-17 21:35:00
4:55 PM,67.5,52.2,58,30.12,10.0,South,21.9,25.3,N/A,,Mostly Cloudy,170,2012-04-17 21:55:00
5:15 PM,67.3,52.3,59,30.11,10.0,South,20.7,27.6,N/A,,Scattered Clouds,170,2012-04-17 22:15:00
5:35 PM,67.5,51.3,56,30.11,10.0,South,18.4,24.2,N/A,,Scattered Clouds,170,2012-04-17 22:35:00
5:55 PM,67.5,51.4,56,30.10,10.0,South,21.9,29.9,N/A,,Scattered Clouds,180,2012-04-17 22:55:00
6:15 PM,66.9,50.7,56,30.09,10.0,South,23.0,27.6,N/A,,Clear,170,2012-04-17 23:15:00
6:35 PM,66.2,51.3,59,30.09,10.0,South,18.4,-,N/A,,Clear,170,2012-04-17 23:35:00
6:55 PM,66.0,51.1,59,30.09,10.0,South,20.7,26.5,N/A,,Clear,170,2012-04-17 23:55:00
7:15 PM,65.1,51.3,61,30.09,10.0,South,18.4,26.5,N/A,,Clear,170,2012-04-18 00:15:00
7:35 PM,63.3,51.4,65,30.09,10.0,South,15.0,20.7,N/A,,Clear,170,2012-04-18 00:35:00
8:15 PM,61.3,50.9,69,30.08,10.0,SSE,11.5,-,N/A,,Clear,160,2012-04-18 01:15:00
8:35 PM,60.1,51.3,73,30.08,10.0,SSE,11.5,-,N/A,,Clear,160,2012-04-18 01:35:00
8:55 PM,59.2,51.3,75,30.08,10.0,SSE,12.7,-,N/A,,Clear,150,2012-04-18 01:55:00
9:15 PM,58.3,51.1,77,30.09,10.0,SSE,11.5,-,N/A,,Clear,150,2012-04-18 02:15:00
9:35 PM,57.9,50.9,77,30.09,10.0,SSE,12.7,-,N/A,,Clear,150,2012-04-18 02:35:00
9:55 PM,57.4,50.9,79,30.08,10.0,SSE,10.4,-,N/A,,Clear,150,2012-04-18 02:55:00
10:15 PM,56.7,50.7,80,30.08,10.0,SSE,10.4,-,N/A,,Clear,160,2012-04-18 03:15:00
10:35 PM,56.7,50.4,79,30.07,10.0,SSE,10.4,-,N/A,,Clear,160,2012-04-18 03:35:00
10:55 PM,56.3,50.4,80,30.07,10.0,SSE,10.4,-,N/A,,Clear,160,2012-04-18 03:55:00
11:15 PM,55.8,50.2,82,30.07,10.0,SSE,11.5,-,N/A,,Clear,160,2012-04-18 04:15:00
11:35 PM,55.6,50.0,81,30.06,10.0,South,11.5,-,N/A,,Clear,170,2012-04-18 04:35:00
11:55 PM,55.6,50.0,81,30.06,10.0,South,13.8,-,N/A,,Clear,170,2012-04-18 04:55:00